Home   Weather   Bamako   Past weeks

Flag for Mali Past Weather in Bamako, Mali — Yesterday and Last 2 Weeks

Now
75 °F

Passing clouds.


Feels Like: 74 °F
Forecast: 74 / 87 °F
Wind: 5 mph from Southwest

Location: Bamako / Senou

Current Time: Jul 22, 2017 at 3:00:49 am

Latest Report: Jul 22, 2017 at 2:00 am


Visibility: N/A

Pressure: 29.95 "Hg

Humidity: 94%

Dew Point: 73 °F

Location of BamakoLocation

Past Weather in Bamako — Graph

°F

Bamako Temperature Yesterday

Maximum temperature yesterday: 88 °F (at 5:00 pm)
Minimum temperature yesterday: 72 °F (at 12:00 am)
Average temperature yesterday: 78 °F

High & Low Weather Summary for the Past Weeks

 TemperatureHumidityPressure
High95 °F (Jul 8, 3:00 pm)100% (Jul 10, 1:00 am)30.09 "Hg (Jul 10, 1:00 am)
Low70 °F (Jul 10, 1:30 am)14% (Jul 19, 6:00 pm)29.86 "Hg (Jul 9, 5:30 pm)
Average80 °F80%29.99 "Hg
* Reported Jul 7 1:00 am — Jul 22 1:30 am, Bamako. Weather by CustomWeather, © 2017

Note: Actual official high and low records may vary slightly from our data, if they occured in-between our weather recording intervals... More about our weather records

Advertising

Bamako Weather History for the Previous 24 Hours

Scroll right to see more
 ConditionsComfort  
Time TempWeatherWind HumidityBarometerVisibility
1:30 am
Sat, Jul 22
77 °FPassing clouds.6 mph89%29.98 "HgN/A
1:00 am77 °FPassing clouds.6 mph89%29.98 "HgN/A
12:30 am77 °FPassing clouds.6 mph89%29.98 "HgN/A
12:00 am77 °FPassing clouds.5 mph94%29.98 "HgN/A
11:30 pm
Fri, Jul 21
77 °FPassing clouds.7 mph94%30.01 "HgN/A
11:00 pm79 °FPassing clouds.5 mph89%30.01 "HgN/A
10:30 pm79 °FPassing clouds.6 mph89%30.01 "HgN/A
10:00 pm79 °FPassing clouds.6 mph89%29.98 "HgN/A
9:30 pm79 °FPassing clouds.6 mph89%29.98 "HgN/A
8:30 pm81 °FPassing clouds.6 mph84%29.95 "HgN/A
8:00 pm81 °FPassing clouds.5 mph84%29.95 "HgN/A
7:30 pm81 °FPassing clouds.6 mph79%29.92 "HgN/A
7:00 pm82 °FPassing clouds.6 mph74%29.92 "HgN/A
6:30 pm84 °FPassing clouds.7 mph66%29.92 "HgN/A
6:00 pm86 °FPassing clouds.7 mph62%29.92 "HgN/A
5:30 pm86 °FPassing clouds.7 mph62%29.92 "HgN/A
5:00 pm88 °FScattered clouds.7 mph59%29.92 "HgN/A
4:30 pm86 °FScattered clouds.7 mph62%29.92 "HgN/A
3:30 pm86 °FPassing clouds.8 mph66%29.95 "HgN/A
3:00 pm86 °FPassing clouds.8 mph66%29.95 "HgN/A
2:00 pm84 °FPassing clouds.7 mph62%29.98 "HgN/A
1:30 pm84 °FPassing clouds.6 mph62%29.98 "HgN/A
1:00 pm84 °FPassing clouds.9 mph62%30.01 "HgN/A
12:30 pm84 °FPassing clouds.6 mph62%30.01 "HgN/A
12:00 pm82 °FPassing clouds.7 mph66%30.01 "HgN/A
11:30 am82 °FPassing clouds.3 mph66%30.04 "HgN/A
11:00 am81 °FPassing clouds.7 mph70%30.04 "HgN/A
10:30 am79 °FPassing clouds.6 mph74%30.04 "HgN/A
10:00 am77 °FPassing clouds.7 mph79%30.04 "HgN/A
9:30 am77 °FPassing clouds.7 mph79%30.04 "HgN/A
9:00 am75 °FPassing clouds.8 mph83%30.01 "HgN/A
8:30 am73 °FPassing clouds.9 mph89%30.01 "HgN/A
8:00 am73 °FPassing clouds.10 mph89%30.01 "HgN/A
7:30 am72 °FScattered clouds.12 mph94%29.98 "HgN/A
7:00 am72 °FScattered clouds.9 mph94%29.98 "HgN/A
6:30 am72 °FScattered clouds.9 mph94%29.95 "HgN/A
6:00 am72 °FPassing clouds.9 mph94%29.95 "HgN/A
5:30 am72 °FPassing clouds.9 mph94%29.95 "HgN/A
5:00 am72 °FPassing clouds.9 mph94%29.92 "HgN/A
4:30 am72 °FPassing clouds.9 mph94%29.92 "HgN/A
4:00 am72 °FPassing clouds.9 mph94%29.92 "HgN/A
3:30 am72 °FPassing clouds.7 mph94%29.92 "HgN/A
3:00 am72 °FPassing clouds.5 mph94%29.92 "HgN/A
Weather by CustomWeather, © 2017

See weather overviewHow to use our weather pages